Location: Newark
(35.4036°N, 80.4356°W)
Time: 01:52:54
(UTC+00:00)

Envisat - Pass Details

Date: 02 September 2019
Orbit: 764 x 766 km, 98.1° (Epoch: 23 October)

Event Time Altitude Azimuth Distance (km) Brightness Sun altitude
Rises 00:25:50 0° 193° (SSW) 3,216 6.2 -8.1°
Reaches altitude 10° 00:28:25 10° 205° (SSW) 2,295 5.6 -8.6°
Maximum altitude 00:32:44 28° 264° (W) 1,399 5.2 -9.5°
Drops below altitude 10° 00:37:06 10° 323° (NW) 2,308 6.4 -10.3°
Sets 00:39:43 0° 335° (NNW) 3,239 6.9 -10.8°
